Location: Elaine Barite Prospect
(34.1431°N, 106.7922°W)
Time: 12:25:15
(UTC+00:00)

Cosmos 1484 Rocket - Pass Details

Date: 13 December 2025
Orbit: 439 x 472 km, 97.6° (Epoch: 15 January)

Event Time Altitude Azimuth Distance (km) Brightness Sun altitude
Rises 11:14:25 0° 75° (ENE) 2,432 7.0 -34.3°
Reaches altitude 10° 12:45:37 10° 16° (NNE) 1,570 5.1 -15.9°
Maximum altitude 12:48:58 74° 102° (ESE) 462 2.5 -15.2°
Drops below altitude 10° 12:52:16 10° 187° (S) 1,546 5.2 -14.6°
Sets 12:54:16 0° 189° (S) 2,409 6.2 -14.2°
